Theta_e
310 309 307 307 308 308 308 308 306 302 302 307 306 312 311 311 311 313 310 308 308 308 308 309 311 312 314 314 315 315 314 312 311 310 311 311 312 312
309 309 308 307 307 307 307 307 306 304 300 305 306 310 311 310 310 312 311 308 307 307 308 310 310 311 312 312 313 314 313 311 311 311 310 310 310 310
308 308 307 309 306 304 306 307 306 306 302 305 307 310 310 310 310 311 310 309 309 307 308 310 309 310 312 312 312 313 312 311 311 311 311 311 310 309
306 306 306 306 308 309 306 307 306 307 304 302 305 306 307 309 310 309 308 308 308 307 307 308 307 309 310 311 310 311 310 310 311 311 311 310 310 309
306 306 305 306 306 306 307 306 305 305 304 302 301 304 305 306 306 307 306 307 307 306 306 308 307 308 308 309 309 308 308 306 306 308 310 309 309 308
308 308 306 306 307 307 306 306 306 305 304 302 301 301 302 304 304 301 301 304 303 306 306 306 306 306 306 306 306 306 306 305 306 306 307 306 305 305
307 306 306 306 304 304 304 306 306 304 302 301 300 300 300 301 300 301 299 301 302 303 302 303 306 308 309 305 304 304 304 304 305 305 304 303 302 302
304 306 307 304 304 303 302 302 303 303 303 301 300 299 301 301 301 300 299 298 296 304 303 300 304 305 309 305 301 301 302 303 302 302 301 301 300 300
305 304 303 303 304 303 303 304 304 302 301 303 302 302 302 302 302 300 299 298 297 301 303 299 303 303 305 304 301 302 303 302 302 301 301 300 300 299
304 303 303 303 301 300 302 302 303 304 304 303 304 305 304 303 302 301 300 299 300 299 303 296 302 301 303 304 301 301 301 301 300 300 300 299 298 297
303 303 301 301 295 295 300 301 302 303 304 299 299 297 296 297 298 299 297 295 293 294 301 300 301 296 300 300 305 300 299 299 299 298 298 298 297 297
303 302 299 297 294 293 298 299 297 298 299 299 300 301 301 301 299 299 298 293 293 292 300 295 298 297 296 301 301 302 300 299 299 297 297 297 296 297
299 299 300 294 293 293 292 298 295 295 297 298 299 300 299 298 296 298 299 296 293 292 297 299 296 295 296 295 297 300 300 298 298 298 296 296 295 295
300 300 300 293 292 293 295 291 292 293 297 297 296 294 294 295 296 297 298 299 300 296 298 301 295 294 294 292 292 297 298 297 299 296 296 296 295 294
301 297 294 293 294 296 294 293 294 297 296 295 294 292 294 296 297 297 297 298 299 300 299 299 298 297 295 293 292 294 292 295 296 295 296 295 294 295
301 301 298 295 294 297 298 298 298 296 295 294 292 292 294 294 294 296 294 295 294 297 301 301 299 297 294 294 294 292 293 291 293 295 294 295 295 295
296 301 300 300 299 298 298 298 297 296 295 295 290 291 292 292 293 294 294 294 293 293 295 296 298 299 297 294 292 292 292 292 293 294 294 293 294 295
298 299 298 299 298 297 297 296 296 295 292 291 290 290 290 291 291 292 293 293 292 293 293 294 294 294 295 296 295 292 292 291 293 294 294 292 292 294
300 299 299 298 298 297 297 295 294 292 292 290 290 289 290 292 291 291 291 292 293 294 293 294 292 291 289 288 293 294 291 292 292 292 294 293 291 293
301 299 299 298 298 297 297 295 293 291 290 290 289 289 291 290 290 290 291 292 292 292 292 292 292 292 289 288 287 292 293 293 293 293 292 294 295 294
300 300 299 299 298 298 296 295 291 290 289 289 289 289 290 290 291 292 292 290 290 292 291 291 292 288 295 294 292 292 294 295 295 294 294 293 292 293
301 300 299 299 299 297 296 295 291 290 290 290 290 290 291 292 292 292 292 292 293 292 292 293 295 294 294 292 290 291 293 298 297 296 296 295 293 290
300 299 299 299 298 297 295 293 290 290 290 290 290 291 293 292 293 293 293 293 293 293 293 293 295 295 293 292 291 295 296 296 296 295 294 296 295 295
Wind_Speed
8 8 7 6 6 6 5 5 5 6 7 4 6 7 7 5 6 7 7 11 12 13 15 15 14 14 13 13 14 13 11 10 8 8 8 9 10 11
6 9 8 7 6 5 6 5 5 6 6 6 6 6 7 7 6 8 8 11 8 12 14 14 14 14 14 14 14 13 12 11 10 11 10 10 10 11
8 9 9 9 7 6 5 5 5 6 7 7 5 7 9 9 9 8 8 8 8 9 13 11 13 12 14 13 12 13 13 13 14 14 14 13 13 12
8 9 9 7 9 7 5 6 5 5 7 10 9 8 9 9 9 10 8 8 9 10 14 10 13 13 10 9 8 9 9 11 12 15 15 16 15 14
7 8 8 9 8 7 7 6 5 4 4 5 7 6 6 6 9 8 9 9 7 12 6 8 10 11 9 7 2 1 2 6 9 13 16 16 15 12
8 8 9 9 10 10 8 8 6 7 6 6 7 7 6 7 8 9 9 9 9 8 7 7 10 8 6 3 2 3 5 8 9 8 8 6 5 9
11 10 9 11 12 10 8 10 10 9 8 8 8 8 8 9 10 9 10 10 9 6 7 9 8 5 1 1 2 6 7 7 5 2 3 5 6 7
10 10 10 9 14 14 12 13 13 11 12 10 9 10 11 11 9 10 11 10 9 7 9 9 8 6 2 4 8 9 9 8 5 4 4 3 5 6
9 10 10 9 11 13 14 13 11 9 13 11 12 11 11 11 11 12 13 12 12 11 8 9 9 6 4 5 8 9 7 5 4 4 5 4 4 6
9 9 10 12 13 14 14 15 14 9 7 6 8 9 9 8 10 12 14 12 10 8 7 7 6 7 7 5 7 8 6 4 3 2 3 4 6 8
8 8 11 13 14 15 15 14 13 9 5 3 6 7 7 9 7 11 10 9 9 9 8 6 4 5 9 3 2 6 2 2 4 4 4 7 8 9
9 11 7 13 13 12 13 12 12 12 14 14 12 10 9 9 7 8 6 6 6 5 1 3 6 3 5 3 3 4 2 5 6 2 6 7 8 7
8 9 9 11 12 12 12 11 13 13 14 11 10 10 11 8 6 7 8 6 5 5 7 5 3 4 3 4 4 5 2 5 6 2 6 6 7 7
7 7 8 11 12 13 12 15 15 14 9 10 9 9 9 8 7 7 9 7 5 8 9 9 2 5 4 3 4 3 3 6 4 2 4 4 5 7
6 8 11 10 11 11 12 12 13 9 10 9 10 8 10 8 8 7 7 9 9 6 4 3 7 3 4 5 4 2 3 3 4 3 4 3 3 4
5 8 9 10 10 9 12 11 11 9 10 9 8 8 8 7 6 5 5 6 6 5 5 3 4 4 5 5 4 1 3 3 4 4 4 3 3 3
8 8 9 10 12 13 13 13 11 11 11 11 8 8 7 6 6 6 5 6 5 5 5 3 7 6 5 4 2 1 4 3 4 4 3 3 1 3
7 8 9 10 12 13 14 14 12 14 10 9 8 7 7 6 6 6 5 5 5 5 3 5 5 4 2 3 2 2 3 3 4 4 3 3 2 3
8 8 9 10 12 13 13 13 13 10 11 8 7 7 7 6 6 5 5 5 5 4 4 4 3 3 3 3 1 1 4 3 4 3 3 2 2 3
9 8 9 10 11 13 13 13 10 9 7 7 7 7 6 6 5 5 4 6 6 4 4 3 4 3 2 3 2 2 6 4 5 3 2 2 3 6
8 8 7 10 11 12 12 12 9 9 8 7 6 6 6 6 5 6 6 5 5 4 4 3 4 3 3 3 2 2 3 5 5 4 4 2 2 3
8 7 7 9 11 12 12 11 8 9 8 7 7 6 6 5 5 5 5 6 5 5 4 3 3 3 2 2 2 4 4 4 3 2 3 4 3 3
6 7 8 10 10 11 11 10 10 8 8 7 7 7 6 5 5 5 5 5 5 4 4 3 2 1 2 2 4 5 4 5 3 2 3 9 8 7
Wind_Direction
33 29 19 16 13 7 358 355 337 325 330 351 335 14 346 340 360 339 332 347 328 332 325 316 305 301 288 279 259 249 240 241 248 255 259 268 274 279
20 14 8 6 4 11 5 5 8 342 326 0 351 336 333 334 343 326 324 305 328 325 323 317 306 297 293 279 264 239 230 234 241 244 246 247 253 264
26 23 21 10 4 359 350 352 351 345 326 331 312 327 319 325 326 330 321 318 320 337 325 325 326 309 285 268 261 232 231 237 240 241 244 244 249 257
21 13 13 5 7 6 342 344 339 324 318 322 340 320 323 327 325 321 329 320 324 326 324 317 330 319 309 269 254 247 258 255 256 252 248 244 245 254
358 351 347 345 351 349 345 342 341 329 323 315 316 317 317 332 331 316 327 316 303 317 299 277 326 321 325 323 114 157 326 295 279 264 248 239 239 251
340 335 331 331 326 326 324 321 313 309 316 307 315 330 327 346 316 330 329 320 324 321 320 291 282 289 298 22 54 2 350 329 320 301 232 213 227 258
338 342 336 329 322 317 304 306 304 298 304 308 312 317 325 334 332 331 320 325 320 314 322 314 314 308 224 152 321 315 309 287 284 279 241 215 233 255
330 336 337 336 343 329 319 300 289 287 291 298 304 316 312 320 330 329 318 324 319 329 324 308 298 299 285 300 12 312 289 260 246 238 229 250 262 269
347 348 344 355 347 339 331 310 293 260 265 288 291 305 312 331 323 312 319 312 310 315 318 308 297 300 314 294 48 354 318 251 242 248 259 273 288 284
6 2 354 352 2 346 329 332 331 332 342 312 300 305 311 325 316 310 305 291 289 307 291 278 315 316 312 306 90 2 5 24 3 335 291 290 294 282
8 12 7 356 353 343 335 337 333 344 336 242 264 288 282 272 291 309 306 311 308 305 309 298 304 293 282 338 72 14 11 15 331 315 330 329 315 301
356 359 47 357 337 340 339 335 333 339 324 321 313 295 259 296 327 315 308 288 300 295 320 294 306 318 306 59 300 11 259 280 299 335 324 311 308 294
356 356 357 343 326 329 326 344 326 314 315 316 318 323 325 328 309 324 304 283 281 267 287 304 303 319 288 314 307 300 298 330 305 299 307 287 312 307
344 350 343 329 325 319 329 333 318 300 324 323 334 328 317 317 313 316 301 304 275 271 275 278 256 268 309 293 276 285 305 309 316 288 302 306 299 305
336 326 294 309 319 327 334 300 305 335 328 331 335 323 318 328 306 300 309 303 300 298 315 239 253 292 278 278 277 302 340 303 303 307 307 315 325 320
327 322 315 283 285 315 338 345 341 339 326 328 316 310 309 314 315 312 312 314 309 310 309 314 20 281 288 277 292 321 299 303 306 297 317 282 306 318
321 314 337 344 344 347 346 346 342 342 336 337 322 311 312 312 314 325 314 318 309 318 323 351 314 324 287 277 283 321 319 305 301 319 309 307 304 332
287 334 338 344 345 344 343 342 343 350 337 322 314 316 312 313 322 317 318 315 316 320 335 330 335 320 287 214 188 310 311 303 315 330 324 312 323 333
310 342 341 343 342 341 342 343 348 339 330 327 317 317 318 317 322 324 321 315 319 334 348 343 334 331 321 340 348 107 320 311 305 300 313 339 307 342
333 335 344 343 342 341 341 343 351 326 322 317 321 322 319 322 324 326 317 330 344 355 342 349 337 352 327 328 311 300 299 298 321 341 301 290 289 284
344 339 345 344 343 340 343 348 342 323 317 321 323 322 318 316 320 335 335 332 329 343 332 337 353 305 327 299 284 294 293 266 281 332 333 289 312 319
333 343 351 345 341 346 345 354 332 326 324 324 325 320 314 314 335 336 347 347 351 330 336 359 352 348 346 328 307 287 305 328 196 250 341 322 341 350
2 359 347 347 347 346 348 353 332 322 322 326 325 324 324 341 334 319 329 344 343 345 355 345 344 324 319 291 303 312 345 31 2 87 44 35 66 67